Content
SEND FEEDBACK

Daily
Averages
Monthly
Summary
United States of America

PUT IN BAY, OHIO


Home > North America > United States > Ohio
Elevation: 561 feet     Latitude: 41 39N     Longitude: 082 48W

WEATHER
 
SELECT A DAY
Number of Records: 125,371;   Date Range: 12/10/00 - 12/16/14
 
SHARE

PRINT THIS DATA

[ ← Previous Day ]
WEATHER ALMANAC - DECEMBER 16, 2013
[ Next Day → ]
[ °C ]   °F
Weather ElementAverageHighLow
Temperature13.9 °F21 °F (11:00 pm)8.6 °F (8:00 pm)
Dewpoint9.3 °F19 °F (11:00 pm)6 °F (7:00 am)
Humidity81.3 %92 % (8:00 pm)59 % (1:00 pm)
Barometer30.13 in30.21 in (11:00 am)30.04 in (11:00 pm)
Wind Speed4.9 mph13.8 mph (2:00 am)
Wind Gust21.9 mph (2:00 am)
Weather ElementAverage
Wind DirectionSSW (189.2 °)

Weather ElementTotal
Precipitation0.03 in
Heating Degree Days50.2 (Base 65)
Averaged from 27 records on December 16, 2013
WEATHER CONDITIONS BREAKOUT
WIND DIRECTION BREAKOUT
WEATHER BY HOUR - DECEMBER 16, 2013
[ °C ]   °F
Local TimeTemperatureDewpointHumidityBarometerVisibilityWind DirectionWind SpeedGust SpeedPrecipitationEventsConditions
1:00 AM15.0 °F10.0 °F73 %30.05 inWest (270°)9.2 mph
1:00 AM15.4 °F10.2 °F80 %30.05 inWest (270°)9.2 mph
2:00 AM14.0 °F9.3 °F82 %30.07 inWest (270°)13.8 mph21.9 mph
3:00 AM12.9 °F9.0 °F84 %30.09 inWest (270°)9.2 mph
4:00 AM11.8 °F7.5 °F83 %30.11 inWest (270°)9.2 mph
5:00 AM10.8 °F6.8 °F84 %30.12 inWest (270°)9.2 mph
6:00 AM11.3 °F6.3 °F80 %30.14 inWest (270°)6.9 mph
7:00 AM9.0 °F6.0 °F83 %30.14 inWest (270°)6.9 mph
7:00 AM9.1 °F6.3 °F88 %30.14 inWest (270°)6.9 mph
8:00 AM9.1 °F6.4 °F89 %30.15 inWest (270°)5.8 mph0.01 in
9:00 AM10.9 °F7.5 °F86 %30.17 inWest (280°)6.9 mph
10:00 AM13.3 °F7.9 °F79 %30.19 inWest (270°)5.8 mph
11:00 AM14.0 °F8.4 °F78 %30.21 inWSW (240°)3.5 mph
12:00 PM18.9 °F11.3 °F72 %30.19 inWSW (240°)2.3 mph
1:00 PM19.0 °F11.0 °F59 %30.16 inCalm
1:00 PM19.4 °F10.9 °F70 %30.16 inCalm
2:00 PM18.0 °F10.2 °F72 %30.15 inSouth (170°)2.3 mph
3:00 PM18.3 °F10.8 °F72 %30.15 inSSE (160°)3.5 mph
4:00 PM17.4 °F10.6 °F75 %30.15 inEast (100°)1.2 mph
5:00 PM13.5 °F9.3 °F84 %30.14 inSE (130°)1.2 mph
6:00 PM11.8 °F9.3 °F90 %30.14 inEast (80°)1.2 mph
7:00 PM10.0 °F8.0 °F85 %30.14 inENE (60°)2.3 mph
7:00 PM11.3 °F7.5 °F85 %30.14 inENE (60°)2.3 mph
8:00 PM8.6 °F6.6 °F92 %30.14 inNE (40°)2.3 mph
9:00 PM10.4 °F8.2 °F91 %30.10 inEast (100°)1.2 mph
10:00 PM20.5 °F17.2 °F87 %30.06 inSE (140°)4.6 mph
11:00 PM21.0 °F19.0 °F92 %30.04 inSSE (150°)4.6 mph0.02 in
Hourly data recorded from CXHA, located miles away from Put In Bay, Ohio







STORIES FROM OUR PARTNERS